Location: Newark
(45.2500°N, 7.5833°E)
Time: 18:40:56
(UTC+00:00)

Tiros 1 despin weight - Pass Details

Date: 04 February 2020
Orbit: 594 x 642 km, 48.2° (Epoch: 27 February)

Event Time Altitude Azimuth Distance (km) Brightness Sun altitude
Rises 14:05:20 0° 279° (W) 2,889 ? 20.6°
Reaches altitude 10° 14:09:07 10° 248° (WSW) 1,991 ? 20.2°
Maximum altitude 14:10:44 12° 227° (SW) 1,881 ? 20.0°
Drops below altitude 10° 14:12:21 10° 206° (SSW) 1,997 ? 19.8°
Sets 14:16:10 0° 175° (S) 2,909 ? 19.4°
